TimeEDT,TemperatureF,Dew PointF,Humidity,Sea Level PressureIn,VisibilityMPH,Wind Direction,Wind SpeedMPH,Gust SpeedMPH,PrecipitationIn,Events,Conditions,WindDirDegrees,DateUTC
12:10 AM,62.6,59.0,88,30.30,10.0,Calm,Calm,-,N/A,,Clear,0,2013-06-21 04:10:00
12:30 AM,62.6,59.0,88,30.30,10.0,Calm,Calm,-,N/A,,Clear,0,2013-06-21 04:30:00
12:50 AM,62.6,59.0,88,30.30,10.0,SE,3.5,-,N/A,,Clear,140,2013-06-21 04:50:00
1:10 AM,59.0,59.0,100,30.31,10.0,Calm,Calm,-,N/A,,Clear,0,2013-06-21 05:10:00
1:30 AM,60.8,59.0,94,30.31,-9999.0,Calm,Calm,-,N/A,,Unknown,0,2013-06-21 05:30:00
1:50 AM,59.0,59.0,100,30.31,10.0,SE,3.5,-,N/A,,Clear,130,2013-06-21 05:50:00
2:10 AM,59.0,59.0,100,30.31,10.0,Calm,Calm,-,N/A,,Clear,0,2013-06-21 06:10:00
2:30 AM,59.0,55.4,88,30.31,10.0,Calm,Calm,-,N/A,,Clear,0,2013-06-21 06:30:00
2:50 AM,57.2,57.2,100,30.30,10.0,SE,3.5,-,N/A,,Clear,140,2013-06-21 06:50:00
3:10 AM,57.2,55.4,94,30.30,10.0,Calm,Calm,-,N/A,,Clear,0,2013-06-21 07:10:00
3:30 AM,59.0,55.4,88,30.29,10.0,SSE,4.6,-,N/A,,Clear,150,2013-06-21 07:30:00
3:50 AM,59.0,55.4,88,30.29,10.0,Calm,Calm,-,N/A,,Clear,0,2013-06-21 07:50:00
4:10 AM,55.4,55.4,100,30.30,10.0,Calm,Calm,-,N/A,,Clear,0,2013-06-21 08:10:00
4:30 AM,55.4,55.4,100,30.30,10.0,Calm,Calm,-,N/A,,Clear,0,2013-06-21 08:30:00
4:50 AM,55.4,55.4,100,30.30,10.0,Calm,Calm,-,N/A,,Clear,0,2013-06-21 08:50:00
5:10 AM,55.4,55.4,100,30.30,10.0,Calm,Calm,-,N/A,,Clear,0,2013-06-21 09:10:00
5:30 AM,53.6,53.6,100,30.30,10.0,Calm,Calm,-,N/A,,Clear,0,2013-06-21 09:30:00
5:50 AM,53.6,53.6,100,30.31,10.0,Calm,Calm,-,N/A,,Clear,0,2013-06-21 09:50:00
6:10 AM,53.6,53.6,100,30.31,10.0,Calm,Calm,-,N/A,,Clear,0,2013-06-21 10:10:00
6:30 AM,55.4,55.4,100,30.32,10.0,Calm,Calm,-,N/A,,Clear,0,2013-06-21 10:30:00
6:45 AM,55.4,55.4,100,30.32,10.0,Calm,Calm,-,N/A,,Clear,0,2013-06-21 10:45:00
6:50 AM,57.2,57.2,100,30.32,10.0,Calm,Calm,-,N/A,,Clear,0,2013-06-21 10:50:00
7:47 AM,62.6,57.2,82,30.34,10.0,Calm,Calm,-,N/A,,Clear,0,2013-06-21 11:47:00
8:59 AM,69.8,59.0,68,30.33,10.0,Calm,Calm,-,N/A,,Clear,0,2013-06-21 12:59:00
9:59 AM,73.4,55.4,53,30.32,10.0,SW,3.5,-,N/A,,Clear,230,2013-06-21 13:59:00
10:50 AM,77.0,53.6,44,30.33,10.0,South,5.8,-,N/A,,Clear,180,2013-06-21 14:50:00
11:58 AM,78.8,57.2,47,30.32,10.0,SE,4.6,-,N/A,,Clear,140,2013-06-21 15:58:00
12:55 PM,80.6,60.8,51,30.32,10.0,SSE,6.9,-,N/A,,Clear,150,2013-06-21 16:55:00
1:50 PM,80.6,60.8,51,30.30,10.0,South,5.8,-,N/A,,Clear,170,2013-06-21 17:50:00
2:50 PM,82.4,57.2,42,30.29,10.0,South,5.8,-,N/A,,Clear,190,2013-06-21 18:50:00
3:50 PM,82.4,60.8,48,30.28,10.0,South,5.8,-,N/A,,Clear,170,2013-06-21 19:50:00
4:50 PM,82.4,62.6,51,30.27,10.0,South,8.1,-,N/A,,Clear,190,2013-06-21 20:50:00
5:50 PM,82.4,60.8,48,30.26,10.0,SSE,8.1,-,N/A,,Clear,150,2013-06-21 21:50:00
6:50 PM,80.6,60.8,51,30.26,10.0,SE,5.8,-,N/A,,Clear,140,2013-06-21 22:50:00
7:51 PM,75.2,53.6,47,30.26,10.0,SE,6.9,-,N/A,,Clear,130,2013-06-21 23:51:00
8:55 PM,69.8,51.8,53,30.27,10.0,Calm,Calm,-,N/A,,Clear,0,2013-06-22 00:55:00
9:15 PM,69.8,51.8,53,30.27,10.0,ESE,3.5,-,N/A,,Clear,120,2013-06-22 01:15:00
9:35 PM,66.2,53.6,64,30.27,10.0,Calm,Calm,-,N/A,,Clear,0,2013-06-22 01:35:00
9:55 PM,64.4,53.6,68,30.27,10.0,Calm,Calm,-,N/A,,Clear,0,2013-06-22 01:55:00
10:15 PM,64.4,53.6,68,30.27,10.0,Calm,Calm,-,N/A,,Clear,0,2013-06-22 02:15:00
10:35 PM,64.4,51.8,64,30.28,10.0,Calm,Calm,-,N/A,,Clear,0,2013-06-22 02:35:00
10:55 PM,64.4,51.8,64,30.28,10.0,Calm,Calm,-,N/A,,Clear,0,2013-06-22 02:55:00
11:15 PM,62.6,53.6,72,30.27,10.0,Calm,Calm,-,N/A,,Clear,0,2013-06-22 03:15:00
11:35 PM,62.6,53.6,72,30.28,10.0,Calm,Calm,-,N/A,,Clear,0,2013-06-22 03:35:00
11:55 PM,60.8,55.4,82,30.28,10.0,Calm,Calm,-,N/A,,Clear,0,2013-06-22 03:55:00